星链-37840(STARLINK-37840)

导读

STARLINK-37840(NORAD编号69965)是美国SpaceX公司星链低轨通信星座的成员卫星。该卫星属于星链二代或第三代序列,运行于近地轨道,核心功能是为全球用户提供低时延、高速率的星链互联网接入服务,适配当前星链网络单用户峰值近200Mbps的下行速率能力。作为星链全球组网的组成部分,该卫星在轨承担信号转发、星间链路通信任务,截至2026年7月处于正常在轨运行状态,服务于星链覆盖区域的民用通信、偏远地区网络接入等场景。

Basic Information
目录编号:
69965
目录名称:
STARLINK-37840
国际标识:
2026-157Y
轨道中心:
EARTH
卫星名称:
星链-37840
卫星全名:
星链-37840(STARLINK-37840)
卫星状态:
在轨 (已飞行58 天)
发射日期:
2026-07-09 UTC
国别 :
美国 (US)
星等 :
--
Orbit Information
数据来源 国际轨道数据
星历时间: 2026-09-05T04:46:59+0800
10小时前
查看轨道信息
半长轴: 6840.816km
偏心率: 0.0000952
轨道倾角: 53.161°
近地点辐角 89.665°
升交点赤经 46.739°
平近点角 270.446°
近地点: 462.027km
远地点: 463.331km
周期: 93.847分钟
每日圈数: 15.344082
Detailed Information
固有亮度:
5
最大亮度:
2.5
卫星平台:
Starlink V1.0
覆盖范围:
全球
运营商:
太空探索技术公司
运营商所在国:
美国
制造商(研发单位):
太空探索技术公司
制造商所在国:
美国
使用方式:
暂无
Satellite Introduction
Starlink 计划是 SpaceX 推出的全球卫星互联网项目,通过发射低轨道卫星,为全球尤其是偏远地区提供高速、低延迟的互联网服务。自 2019 年起,Starlink 已部署数千颗卫星,旨在缩小全球数字鸿沟,推动互联网普及。该项目还为军事、航空等行业提供通信支持,带来广泛经济效益。
2D Orbit Map
3D Orbit Map
Orbit Altitude Analysis Chart
Orbit Inclination Analysis Chart
Orbit Comprehensive Analysis Chart
View Comprehensive Chart
Conjunction Data List
Event ID Objects TCA Miss Dist (km) Collision Risk Probability Collision Risk Index (CRI) Action
CDM_260907-070704-945006-996521
2026-09-07T
07:07:27+0000
0.142 km
中距离
8.697083E-4 高风险 0.94
CDM_260830-004305-262806-996521
2026-08-30T
00:43:48+0000
0.974 km
远距离
2.500487E-5 中风险 0.63
CDM_260829-231005-262806-996521
2026-08-29T
23:10:05+0000
1.387 km
极远距离
7.358641E-6 低风险 0.52
CDM_260830-170006-489206-996521
OBJECT S (64892)
2026-08-30T
17:00:06+0000
2.349 km
极远距离
1.919335E-6 低风险 0.41
CDM_260829-204006-635606-996521
2026-08-29T
20:40:11+0000
2.061 km
极远距离
1.692723E-6 低风险 0.4
CDM_260829-195006-786706-996521
2026-08-29T
19:50:19+0000
1.974 km
极远距离
1.439922E-6 低风险 0.38
CDM_260830-021705-262806-996521
2026-08-30T
02:17:32+0000
2.629 km
极远距离
1.396111E-6 低风险 0.38
CDM_260905-031405-284906-996521
2026-09-05T
03:14:13+0000
2.804 km
极远距离
1.189719E-6 低风险 0.37
CDM_260829-213605-262806-996521
2026-08-29T
21:36:21+0000
2.993 km
极远距离
1.168514E-6 低风险 0.36
CDM_260907-104805-247206-996521
2026-09-07T
10:48:15+0000
2.838 km
极远距离
1.000199E-6 低风险 0.35